Regional Weather Roundup
Issued by NWS

Home | Current Version | Previous Version | Text Only | Print | Product List | Glossary On
Versions: 1 2 3 4 5 6 7 8 9 10 11 12 13 14 15 16 17 18 19 20 21 22 23 24 25 26 27 28 29 30 31 32 33 34 35 36 37 38 39 40 41 42 43 44 45 46 47 48
000
ASUS45 KREV 050810
RWRNV
NEVADA REGIONAL WEATHER ROUNDUP
NATIONAL WEATHER SERVICE RENO NV
100 AM PDT SAT SEP 05 2015

NOTE: "FAIR" INDICATES FEW OR NO CLOUDS BELOW 12,000 FEET WITH NO
SIGNIFICANT WEATHER AND/OR OBSTRUCTIONS TO VISIBILITY.

NVZ001-003-004-050900-
WESTERN NEVADA

CITY           SKY/WX    TMP DP  RH WIND       PRES   REMARKS
RENO           CLEAR     54  20  26 NW8       29.96R
CARSON CITY    FAIR      45  19  36 CALM      29.97R
MINDEN         FAIR      36  23  60 S5        29.96S
SLIDE MTN        N/A     34   3  27 W29         N/A
PYRAMID LAKE     N/A     54 N/A N/A E2          N/A
FALLON         CLEAR     48   8  19 CALM      29.93R
LOVELOCK       CLEAR     50  27  40 NE12      29.94R
HAWTHORNE      CLEAR     63  18  17 CALM      29.90R
$$

NVZ002-CAZ072-073-050900-
NORTHERN AND CENTRAL SIERRA

CITY           SKY/WX    TMP DP  RH WIND       PRES   REMARKS
S. LAKE TAHOE  CLEAR     38  15  39 CALM      30.01R
TRUCKEE        CLEAR     27  12  54 CALM      30.03R
SQUAW VLY 8000   N/A     37   9  30 SW9         N/A
SUSANVILLE     MOCLDY    46  32  57 SE3       30.01R
BLUE CANYON    CLEAR     49  25  39 SE3       30.01R
MAMMOTH LAKES  FAIR      45  32  61 N8        30.05S
BRIDGEPORT     FAIR      46  23  40 CALM      30.01R
$$

NVZ030-031-036-050900-
NORTHERN NEVADA

CITY           SKY/WX    TMP DP  RH WIND       PRES   REMARKS
ELKO           MOCLDY    51  30  44 SW5       29.92R
WINNEMUCCA     CLEAR     37  23  56 CALM      29.95R
WENDOVER       CLEAR     68  28  22 NW14G21   29.78S
$$

NVZ035-037-050900-
CENTRAL NEVADA

CITY           SKY/WX    TMP DP  RH WIND       PRES   REMARKS
ELY            CLEAR     61  16  17 S20G28    29.92F
EUREKA           N/A     50  23  34 CALM      29.95R
$$

NVZ013-014-050900-
SOUTH CENTRAL NEVADA

CITY           SKY/WX    TMP DP  RH WIND       PRES   REMARKS
TONOPAH        CLEAR     60  17  18 NW13      29.92R
$$

NVZ017-020-022-050900-
SOUTHERN NEVADA

CITY           SKY/WX    TMP DP  RH WIND       PRES   REMARKS
LAS VEGAS      CLEAR     80  30  16 SW5       29.77R
N. LAS VEGAS   CLEAR     81  32  17 S12       29.78S
NELLIS AFB     CLEAR     80  32  17 S9        29.77R
HENDERSON      CLEAR     77  30  17 S16       29.83S
MERCURY        CLEAR     73  33  23 SW10      29.83R
$$


USA.gov is the U.S. government's official web portal to all federal, state and local government web resources and services.